Flag for U.S.A. Weather past 2 weeks in Scottsdale, Arizona, U.S.A.

Now
106 °F

Sunny.


Feels Like: 104 °F
Forecast: 83 / 103 °F
Wind: 7 mph from Southwest

Location: Scottsdale Airport

Current Time: Aug 29, 2015 at 2:23:25 PM

Latest Report: Aug 29, 2015 at 1:53 PM


Visibility: 10 mi

Pressure: 29.75 "Hg

Humidity: 17%

Dew point: 53 °F

Location of ScottsdaleLocation

Historic Weather in Scottsdale — Graph

°F

Scottsdale temperature yesterday

Maximum temperature yesterday: 106 °F (at 3:53 PM)
Minimum temperature yesterday: 80 °F (at 4:53 AM)
Average temperature yesterday: 94 °F

Past Weeks' High & Low Weather Summary

 TemperatureHumidityPressure
High113 °F (Aug 15, 3:53 PM)69% (Aug 25, 3:53 AM)29.96 "Hg (Aug 25, 3:53 AM)
Low80 °F (Aug 28, 4:53 AM)12% (Aug 14, 3:53 PM)29.64 "Hg (Aug 18, 5:53 PM)
Average95 °F31%29.79 "Hg
* Reported Aug 14 12:53 PM — Aug 29 12:53 PM, Scottsdale, Weather by CustomWeather, © 2015

Note: Actual official high and low records may vary slightly from our data, if they occured in-between our weather recording intervals... More about our weather records

Advertising

Scottsdale weather history for previous 24 hours

 ConditionsComfort  
Time TempWeatherWind HumidityBarometerVisibility
12:53 PM
Sat, Aug 29
103 °FSunny.5 mph20%29.79 "Hg10 mi
11:53 AM102 °FSunny.6 mph22%29.81 "Hg10 mi
10:53 AM100 °FSunny.7 mph24%29.83 "Hg10 mi
9:53 AM97 °FSunny.8 mph25%29.84 "Hg10 mi
8:53 AM94 °FSunny.7 mph28%29.83 "Hg10 mi
7:53 AM89 °FSunny.No wind38%29.82 "Hg10 mi
6:53 AM86 °FSunny.No wind39%29.80 "Hg10 mi
5:53 AM85 °FClear.No wind42%29.78 "Hg10 mi
4:53 AM85 °FClear.No wind42%29.76 "Hg10 mi
3:53 AM86 °FClear.3 mph42%29.75 "Hg10 mi
2:53 AM88 °FClear.No wind35%29.74 "Hg10 mi
1:53 AM92 °FClear.No wind30%29.74 "Hg10 mi
11:53 PM
Fri, Aug 28
92 °FClear.No wind31%29.75 "Hg10 mi
10:53 PM96 °FClear.No wind23%29.75 "Hg10 mi
9:53 PM98 °FClear.3 mph21%29.75 "Hg10 mi
8:53 PM99 °FClear.3 mph21%29.74 "Hg10 mi
7:53 PM102 °FClear.3 mph17%29.72 "Hg10 mi
6:53 PM103 °FSunny.6 mph17%29.70 "Hg10 mi
5:53 PM105 °FSunny.8 mph16%29.70 "Hg10 mi
4:53 PM106 °FSunny.7 mph15%29.70 "Hg10 mi
3:53 PM106 °FSunny.8 mph16%29.71 "Hg10 mi
2:53 PM105 °FSunny.8 mph17%29.74 "Hg10 mi
Weather by CustomWeather, © 2015

See weather overviewHow to use our weather pages